AirNav   Air Wisconsin Up To $57,000 Bonus
 
 1612 users online  

00AL Epps Airpark
Harvest, Alabama, USA

GOING TO HARVEST?


FAA INFORMATION EFFECTIVE 16 JUNE 2022

Location

FAA Identifier: 00AL
Lat/Long: 34-51-53.3170N 086-46-12.9990W
34-51.888617N 086-46.216650W
34.8648103,-86.7702775
(estimated)
Elevation: 820 ft. / 250 m (estimated)
Variation: 00W (1985)
From city: 1 mile NW of HARVEST, AL
Time zone: UTC -5 (UTC -6 during Standard Time)
Zip code: 35749

Airport Operations

Airport use: Private use. Permission required prior to landing
Activation date: 10/1964
Control tower: no
ARTCC: MEMPHIS CENTER
FSS: ANNISTON FLIGHT SERVICE STATION
Attendance: UNATNDD
Wind indicator: yes
Segmented circle: no

Airport Communications

WX AWOS-3PT at MDQ (10 nm E): 120.000 (256-829-1242)
WX ASOS at HSV (14 nm S): 121.25 (256-772-8074)
WX ASOS at DCU (15 nm SW): 118.375 (256-350-4270)
WX AWOS-3 at FYM (15 nm NE): 135.275 (931-433-5916)

Airport Services

Airframe service: NONE
Powerplant service: NONE

Runway Information

Runway 1/19

Dimensions: 2100 x 90 ft. / 640 x 27 m
Surface: turf
RUNWAY 1  RUNWAY 19
Traffic pattern: leftleft

Airport Ownership and Management from official FAA records

Ownership: Privately-owned
Owner: GEORGE F. EPPS
410 PEPPERWOOD CIR SW, P.O. BOX 356
HUNTSVILLE, AL 35801-6499
Phone 256-837-2369
Manager: GEORGE F. EPPS
410 PEPPERWOOD CIR SW, P.O. BOX 356
HUNTSVILLE, AL 35801-6499
Phone 256-837-2369

Airport Operational Statistics

Aircraft based on the field: 7
Single engine airplanes: 7
    

Additional Remarks

FOR CD CTC HUNTSVILLE APCH AT 256-542-2070. WHEN APCH CLSD CTC MEMPHIS ARTCC AT 901-368-8453/8449.

Instrument Procedures

There are no published instrument procedures at 00AL.

Some nearby airports with instrument procedures:

KMDQ - Huntsville Executive Airport / Tom Sharp Jr Field (10 nm E)
KHUA - Redstone Army Airfield (12 nm S)
KHSV - Huntsville International Airport-Carl T Jones Field (14 nm S)
KDCU - Pryor Field Regional Airport (15 nm SW)
KFYM - Fayetteville Municipal Airport (15 nm NE)
 
Loc | Ops | Rwys | IFR | FBO | Links
Com | Nav | Svcs | Stats | Notes
Area around 00AL (Epps Airpark)
 
Road maps at: MapQuest Bing Google
 
Aerial photo
No photo
 
Sectional chart

 
Airport distance calculator
Flying to Epps Airpark? Find the distance to fly.

From to 00AL

Sunrise and sunset
Times for 29-Jun-2022
 Local
(UTC-5)
 Zulu
(UTC)
Morning civil twilight05:0810:08
Sunrise05:3710:37
Sunset20:0401:04
Evening civil twilight20:3301:33

Current date and time
Zulu (UTC)  29-Jun-2022 15:17:15
Local (UTC-5)  29-Jun-2022 10:17:15
 
METAR
KMDQ 
11nm E 
291455Z AUTO 15004KT 10SM SCT020 BKN026 OVC080 27/21 A3024 RMK A02 LTG DSNT NE T02710210
KHUA 
12nm S 
291458Z AUTO 00000KT 10SM OVC022 26/22 A3022 RMK AO2 SLP228 T02640215 51010
KHSV 
13nm S 
291453Z 00000KT 10SM SCT017 BKN085 27/22 A3022 RMK AO2 SLP227 T02670217 51011
KFYM 
15nm NE 
291500Z AUTO VRB04KT 10SM BKN017 26/22 A3025 RMK A01
KDCU 
16nm SW 
291453Z AUTO 10004KT 10SM BKN019 OVC085 27/21 A3022 RMK AO2 SLP227 T02670211 50009
TAF
KHUA 
12nm S 
291200Z 2912/3018 VRB06KT 9999 SCT014 BKN090 QNH3015INS BECMG 2914/2915 VRB06KT 8000 BR FEW006 QNH3020INS BECMG 2915/2916 VRB06KT 8000 BR FEW021 QNH3019INS BECMG 2918/2919 VRB06KT 9000 -SHRA FEW035 QNH3014INS TEMPO 2918/2923 VRB15G25KT 9000 -TSRA FEW035CB SCT050 BKN080 BECMG 2923/2924 VRB06KT 9999 NSW FEW045 QNH3014INS BECMG 3004/3005 VRB06KT 8000 BR FEW013 QNH3016INS BECMG 3009/3010 VRB06KT 4800 BR BKN006 QNH3016INS BECMG 3014/3015 VRB06KT 8000 BR BKN021 QNH3020INS BECMG 3015/3016 VRB06KT 8000
KHSV 
13nm S 
291426Z 2914/3012 14006KT P6SM BKN015 FM291530 11007KT P6SM SCT020 FM291900 07007KT P6SM VCSH FEW030 FEW080 FM300000 12008KT P6SM FEW035 SCT150
NOTAMs
Click for the latest NOTAMs
NOTAMs are issued by the DoD/FAA and will open in a separate window not controlled by AirNav.

 

 
 

Would you like to see your business listed on this page?

 If your business provides an interesting product or service to pilots, flight crews, aircraft, or users of the Epps Airpark, you should consider listing it here.  To start the listing process, click on the button below
 
Add a business
 

Other Pages about Epps Airpark

Update a link
 
Copyright © AirNav, LLC. All rights reserved. Privacy Policy  Contact